When you browse on this site, cookies collect data to enhance your experience and personalize the content and advertising you see.
Visit our Privacy Policy to learn more. By continuing to use the site, you agree to this use of cookies and data.
  • In Schweiz
  • Länderverzeichnis
  • Für 7 Tage
  • Wassertemperatur
  • Satellitenkarten
  • Wetterkarte
  • Widgets
  • user-avatar
    Anmelden

    Stündliche Wetter Megri

    Heute, 21 Juli, Sonntag

    Zeit Temperatur Niederschläge Wind Luftdruck Luftfeuchtigkeit
    00:00 +19°C° 0 mm 4 m/S 625 mmHg 62%
    01:00 +18°C° 0 mm 4 m/S 625 mmHg 61%
    02:00 +18°C° 0 mm 4 m/S 625 mmHg 61%
    03:00 +18°C° 0 mm 4 m/S 625 mmHg 61%
    04:00 +18°C° 0 mm 4 m/S 625 mmHg 60%
    05:00 +19°C° 0 mm 4 m/S 625 mmHg 58%
    06:00 +19°C° 0 mm 4 m/S 626 mmHg 57%
    07:00 +21°C° 0 mm 4 m/S 626 mmHg 51%
    08:00 +23°C° 0 mm 4 m/S 627 mmHg 44%
    09:00 +26°C° 0 mm 4 m/S 627 mmHg 38%
    10:00 +28°C° 0 mm 4 m/S 627 mmHg 34%
    11:00 +30°C° 0 mm 4 m/S 628 mmHg 29%
    12:00 +33°C° 0 mm 4 m/S 628 mmHg 25%
    13:00 +33°C° 0 mm 5 m/S 627 mmHg 24%
    14:00 +34°C° 0 mm 5 m/S 627 mmHg 23%
    15:00 +35°C° 0 mm 5 m/S 626 mmHg 21%
    16:00 +33°C° 0 mm 5 m/S 626 mmHg 25%
    17:00 +32°C° 0 mm 5 m/S 625 mmHg 28%
    18:00 +29°C° 0 mm 5 m/S 625 mmHg 32%
    19:00 +28°C° 0 mm 5 m/S 624 mmHg 37%
    20:00 +26°C° 0 mm 4 m/S 624 mmHg 42%
    21:00 +23°C° 0 mm 4 m/S 623 mmHg 47%
    22:00 +22°C° 0 mm 4 m/S 623 mmHg 49%
    23:00 +22°C° 0 mm 4 m/S 623 mmHg 52%

    Morgen, 22 Juli, Montag

    Zeit Temperatur Niederschläge Wind Luftdruck Luftfeuchtigkeit
    00:00 +22°C° 0 mm 3 m/S 623 mmHg 55%
    01:00 +22°C° 0 mm 3 m/S 623 mmHg 54%
    02:00 +22°C° 0 mm 3 m/S 623 mmHg 54%
    03:00 +21°C° 0 mm 3 m/S 623 mmHg 53%
    04:00 +22°C° 0 mm 3 m/S 623 mmHg 51%
    05:00 +24°C° 0 mm 2 m/S 623 mmHg 48%
    06:00 +24°C° 0 mm 2 m/S 624 mmHg 46%
    07:00 +26°C° 0 mm 2 m/S 624 mmHg 39%
    08:00 +29°C° 0 mm 3 m/S 625 mmHg 32%
    09:00 +31°C° 0 mm 3 m/S 625 mmHg 25%
    10:00 +34°C° 0 mm 3 m/S 626 mmHg 22%
    11:00 +35°C° 0 mm 3 m/S 626 mmHg 20%
    12:00 +37°C° 0 mm 3 m/S 626 mmHg 17%
    13:00 +37°C° 0 mm 3 m/S 626 mmHg 18%
    14:00 +37°C° 0 mm 3 m/S 625 mmHg 18%
    15:00 +37°C° 0 mm 3 m/S 625 mmHg 18%
    16:00 +35°C° 0 mm 4 m/S 624 mmHg 24%
    17:00 +33°C° 0 mm 4 m/S 623 mmHg 30%
    18:00 +30°C° 0 mm 5 m/S 623 mmHg 36%
    19:00 +29°C° 0 mm 5 m/S 622 mmHg 43%
    20:00 +27°C° 0 mm 4 m/S 622 mmHg 49%
    21:00 +25°C° 0 mm 4 m/S 622 mmHg 55%
    22:00 +25°C° 0 mm 4 m/S 622 mmHg 56%
    23:00 +23°C° 0 mm 4 m/S 622 mmHg 57%

    übermorgen, 23 Juli, Dienstag

    Zeit Temperatur Niederschläge Wind Luftdruck Luftfeuchtigkeit
    00:00 +24°C° 0 mm 3 m/S 621 mmHg 59%
    01:00 +22°C° 0 mm 3 m/S 621 mmHg 59%
    02:00 +22°C° 0 mm 3 m/S 621 mmHg 60%
    03:00 +21°C° 0 mm 3 m/S 621 mmHg 60%
    04:00 +21°C° 0 mm 3 m/S 621 mmHg 60%
    05:00 +21°C° 0 mm 3 m/S 622 mmHg 59%
    06:00 +21°C° 0 mm 3 m/S 622 mmHg 59%
    07:00 +24°C° 0 mm 3 m/S 622 mmHg 53%
    08:00 +26°C° 0 mm 3 m/S 623 mmHg 47%
    09:00 +27°C° 0 mm 4 m/S 623 mmHg 42%
    10:00 +29°C° 0 mm 4 m/S 623 mmHg 38%
    11:00 +30°C° 0 mm 4 m/S 624 mmHg 35%
    12:00 +33°C° 0 mm 4 m/S 624 mmHg 31%
    13:00 +33°C° 0 mm 4 m/S 623 mmHg 30%
    14:00 +33°C° 0 mm 5 m/S 623 mmHg 29%
    15:00 +33°C° 0 mm 5 m/S 622 mmHg 28%
    16:00 +32°C° 0 mm 5 m/S 622 mmHg 31%
    17:00 +30°C° 0 mm 5 m/S 622 mmHg 34%
    18:00 +29°C° 0 mm 5 m/S 622 mmHg 37%
    19:00 +27°C° 0 mm 4 m/S 621 mmHg 42%
    20:00 +25°C° 0 mm 4 m/S 621 mmHg 48%
    21:00 +22°C° 0 mm 3 m/S 621 mmHg 54%
    22:00 +22°C° 0 mm 3 m/S 621 mmHg 56%
    23:00 +21°C° 0 mm 3 m/S 621 mmHg 57%

    24 Juli, Mittwoch

    Zeit Temperatur Niederschläge Wind Luftdruck Luftfeuchtigkeit
    00:00 +21°C° 0 mm 3 m/S 620 mmHg 59%
    01:00 +20°C° 0 mm 2 m/S 620 mmHg 59%
    02:00 +20°C° 0 mm 2 m/S 620 mmHg 60%
    03:00 +19°C° 0 mm 2 m/S 620 mmHg 60%
    04:00 +20°C° 0 mm 2 m/S 621 mmHg 59%
    05:00 +21°C° 0 mm 1 m/S 621 mmHg 57%
    06:00 +22°C° 0 mm 1 m/S 622 mmHg 55%
    07:00 +24°C° 0 mm 1 m/S 622 mmHg 47%
    08:00 +26°C° 0 mm 1 m/S 623 mmHg 39%
    09:00 +28°C° 0 mm 2 m/S 623 mmHg 31%
    10:00 +29°C° 0 mm 2 m/S 624 mmHg 27%
    11:00 +31°C° 0 mm 3 m/S 624 mmHg 22%
    12:00 +33°C° 0 mm 4 m/S 624 mmHg 18%
    13:00 +34°C° 0 mm 4 m/S 624 mmHg 17%
    14:00 +34°C° 0 mm 4 m/S 624 mmHg 15%
    15:00 +35°C° 0 mm 4 m/S 624 mmHg 14%
    16:00 +34°C° 0 mm 4 m/S 624 mmHg 17%
    17:00 +33°C° 0 mm 4 m/S 623 mmHg 20%
    18:00 +32°C° 0 mm 4 m/S 623 mmHg 22%
    19:00 +29°C° 0 mm 3 m/S 622 mmHg 30%
    20:00 +26°C° 0 mm 3 m/S 622 mmHg 39%
    21:00 +24°C° 0 mm 2 m/S 622 mmHg 47%
    22:00 +23°C° 0 mm 2 m/S 622 mmHg 47%
    23:00 +23°C° 0 mm 2 m/S 622 mmHg 48%

    25 Juli, Donnerstag

    Zeit Temperatur Niederschläge Wind Luftdruck Luftfeuchtigkeit
    00:00 +22°C° 0 mm 1 m/S 621 mmHg 49%
    01:00 +22°C° 0 mm 1 m/S 621 mmHg 49%
    02:00 +20°C° 0 mm 2 m/S 621 mmHg 49%
    03:00 +20°C° 0 mm 2 m/S 621 mmHg 50%
    04:00 +22°C° 0 mm 1 m/S 621 mmHg 49%
    05:00 +22°C° 0 mm 1 m/S 622 mmHg 48%
    06:00 +23°C° 0 mm 1 m/S 622 mmHg 47%
    07:00 +25°C° 0 mm 1 m/S 623 mmHg 40%
    08:00 +27°C° 0 mm 1 m/S 624 mmHg 33%
    09:00 +30°C° 0 mm 1 m/S 624 mmHg 26%
    10:00 +31°C° 0 mm 2 m/S 624 mmHg 22%
    11:00 +34°C° 0 mm 3 m/S 625 mmHg 19%
    12:00 +35°C° 0 mm 4 m/S 625 mmHg 16%
    13:00 +36°C° 0 mm 5 m/S 624 mmHg 15%
    14:00 +36°C° 0 mm 5 m/S 624 mmHg 14%
    15:00 +37°C° 0 mm 5 m/S 623 mmHg 12%
    16:00 +36°C° 0 mm 5 m/S 623 mmHg 15%
    17:00 +35°C° 0 mm 4 m/S 622 mmHg 17%
    18:00 +34°C° 0 mm 4 m/S 622 mmHg 19%
    19:00 +30°C° 0 mm 3 m/S 621 mmHg 27%
    20:00 +27°C° 0 mm 3 m/S 621 mmHg 34%
    21:00 +24°C° 0 mm 3 m/S 620 mmHg 42%
    22:00 +23°C° 0 mm 2 m/S 620 mmHg 44%
    23:00 +21°C° 0 mm 2 m/S 620 mmHg 47%

    26 Juli, Freitag

    Zeit Temperatur Niederschläge Wind Luftdruck Luftfeuchtigkeit
    00:00 +21°C° 0 mm 2 m/S 619 mmHg 49%
    01:00 +20°C° 0 mm 2 m/S 619 mmHg 51%
    02:00 +19°C° 0 mm 2 m/S 619 mmHg 53%
    03:00 +19°C° 0 mm 2 m/S 619 mmHg 54%
    04:00 +19°C° 0 mm 2 m/S 619 mmHg 56%
    05:00 +19°C° 0 mm 2 m/S 619 mmHg 57%
    06:00 +19°C° 0 mm 2 m/S 619 mmHg 58%
    07:00 +21°C° 0 mm 2 m/S 620 mmHg 51%
    08:00 +23°C° 0 mm 2 m/S 620 mmHg 45%
    09:00 +25°C° 0 mm 1 m/S 621 mmHg 38%
    10:00 +27°C° 0 mm 2 m/S 621 mmHg 34%
    11:00 +28°C° 0 mm 2 m/S 621 mmHg 30%
    12:00 +29°C° 0 mm 2 m/S 621 mmHg 26%
    13:00 +30°C° 0 mm 3 m/S 621 mmHg 26%
    14:00 +30°C° 0 mm 3 m/S 621 mmHg 25%
    15:00 +30°C° 0 mm 3 m/S 620 mmHg 25%
    16:00 +29°C° 0 mm 3 m/S 620 mmHg 29%
    17:00 +28°C° 0 mm 4 m/S 620 mmHg 34%
    18:00 +27°C° 0 mm 4 m/S 619 mmHg 38%
    19:00 +25°C° 0 mm 4 m/S 619 mmHg 46%
    20:00 +22°C° 0 mm 4 m/S 619 mmHg 55%
    21:00 +20°C° 0 mm 4 m/S 619 mmHg 63%
    22:00 +19°C° 0 mm 3 m/S 619 mmHg 66%
    23:00 +19°C° 0 mm 3 m/S 619 mmHg 69%
    Mehr zeigen